Location: Jackson Park
(37.2862°N, 79.9123°W)
Time: 22:06:08
(UTC+00:00)

Explorer 11/Cluster Stage 4 - Pass Details

Date: 10 May 2026
Orbit: 463 x 1173 km, 28.8° (Epoch: 5 June)

Event Time Altitude Azimuth Distance (km) Brightness Sun altitude
Rises 08:30:51 0° 256° (WSW) 2,879 - -18.5°
Reaches altitude 10° 08:33:43 10° 241° (WSW) 1,856 - -18.0°
Maximum altitude 08:37:00 22° 190° (S) 1,157 - -17.5°
Exits shadow 08:37:47 21° 172° (S) 1,183 7.2 -17.4°
Drops below altitude 10° 08:40:00 10° 137° (SE) 1,662 8.3 -17.1°
Sets 08:42:24 0° 121° (ESE) 2,496 9.4 -16.7°
